sat.trackr.live / text

‹ back to catalog

STARLINK-33870

NORAD 63794 · 2025-091V

PAYLOAD ACTIVE UNKNOWN

§ Identity

Operator
Country
US
Launch date
2025-05-02
Launch site
AFETR
Launch vehicle
Mass (kg)
RCS (m²)

Purposes: comms

External: N2YO · Heavens-Above · Gunter

§ Orbital elements

Epoch: 2026-09-20T15:50:00.833568Z

Period
94.27 min
Inclination
43.0034°
Eccentricity
0.0000987
Mean motion
15.27583712 rev/d
Perigee alt
482.4 km
Apogee alt
483.7 km
Semi-major
6,861.2 km
B*
4.3769e-4
RAAN
31.1514°
Arg perigee
277.4537°
Mean anomaly
82.6203°
Rev number
7,872

§ Raw data

STARLINK-338701 63794U 25091V   26263.65973187  .00011803  00000+0  43769-3 0  99952 63794  43.0034  31.1514 0000987 277.4537  82.6203 15.27583712 78725

JSON: /api/v1/satellites/63794 · /tle

For live sub-satellite position, see the globe view (requires WebGL).

§ Visibility from observer

Set your observer location to see the next 7 days of passes ≥ 10°. The values pass through the URL so the page stays shareable.

No JS? Fill the form by hand. The geolocation button needs JavaScript.